Sydney, New South Wales

4:15 PM AEST on August 04, 2015 (GMT +1000)
Kingsford Smith International | | Change Station
CLOSE
Current Station
Airport
Location: Sydney,
Elevation: 20 ft
Nearby Weather Stations

Elev 20 ft 33.95 °S, 151.17 °E | Updated 15 minutes ago

Scattered Clouds
Scattered Clouds
59 °F
Feels Like 59 °F
N
12
Wind Variable Wind from North

Today
High -- | Low -- °F
--% Chance of Precip.
Yesterday
High -- | Low -- °F
Precip. -- in
6:45 AM 5:17 PM
Waning Gibbous, 80% visible
Pressure 30.06 in
Visibility 6.2 miles
Clouds Few 4000 ft
Scattered Clouds 6000 ft
Dew Point 32 °F
Humidity 36%
Rainfall 0.00 in
Snow Depth Not available.
UV 1 out of 12
Pollen Not available.
Air Quality Not available.
Flu Activity Not available.
METAR YSSY 040600Z 01010KT 9999 FEW040 SCT060 15/00 Q1018 NOSIG

More Conditions Fewer Conditions

Pressure 30.06 in
Visibility 6.2 miles
Clouds Few 4000 ft
Scattered Clouds 6000 ft
Dew Point 32 °F
Humidity 36%
Rainfall 0.00 in
Snow Depth Not available.
UV 1 out of 12
Pollen Not available.
Air Quality Not available.
Flu Activity Not available.
METAR YSSY 040600Z 01010KT 9999 FEW040 SCT060 15/00 Q1018 NOSIG

More Conditions Fewer Conditions

10-Day Weather Forecast

×

Almanac

Astronomy

Aug. 04, 2015 Rise Set
Actual Time
Civil Twilight
Nautical Twilight
Astronomical Twilight
Moon
Length of Visible Light
Length of Day
Tomorrow will be .
, % of the Moon is Illuminated

Today's Extremes

Country Highs Country Lows

Community

WunderPhotos

Upload Photos

1,843,870 photos uploaded!

WunderBlogs® & News

Nearby

Air Quality

  Air Quality AQ Index Pollutant
Not available.

Snow Depth

Station Depth Elevation

Earthquake Activity

City Distance Mag. Time & Date
Minimum magnitude displayed is 2.5.

Coastal Water Temperatures

Place Temperature

Stations

Nearby Weather Stations

Station Location Temp. Windchill Dew Point Humidity Wind Precip. Elev Updated Type